TimeEDT,TemperatureF,Dew PointF,Humidity,Sea Level PressureIn,VisibilityMPH,Wind Direction,Wind SpeedMPH,Gust SpeedMPH,PrecipitationIn,Events,Conditions,WindDirDegrees,DateUTC
12:31 AM,71.6,69.8,94,30.02,10.0,Calm,Calm,-,N/A,,Mostly Cloudy,0,2012-10-08 04:31:00
12:53 AM,73.0,70.0,90,30.01,8.0,Calm,Calm,-,N/A,,Mostly Cloudy,0,2012-10-08 04:53:00
1:53 AM,72.0,68.0,87,30.01,10.0,NNW,5.8,-,N/A,,Mostly Cloudy,330,2012-10-08 05:53:00
2:53 AM,71.1,66.9,87,30.01,7.0,Calm,Calm,-,N/A,,Mostly Cloudy,0,2012-10-08 06:53:00
3:48 AM,69.8,66.2,88,29.99,7.0,North,9.2,-,N/A,,Overcast,10,2012-10-08 07:48:00
3:53 AM,70.0,66.9,90,29.99,7.0,North,11.5,-,N/A,,Overcast,360,2012-10-08 07:53:00
4:17 AM,69.8,66.2,88,30.01,8.0,North,10.4,-,N/A,,Overcast,10,2012-10-08 08:17:00
4:53 AM,66.9,63.0,87,30.01,10.0,NE,11.5,-,N/A,,Overcast,50,2012-10-08 08:53:00
5:12 AM,66.2,62.6,88,30.02,10.0,NE,9.2,-,N/A,,Overcast,40,2012-10-08 09:12:00
5:53 AM,66.0,61.0,84,30.04,10.0,NNE,9.2,-,N/A,,Overcast,30,2012-10-08 09:53:00
6:53 AM,64.0,60.1,87,30.04,10.0,NNE,9.2,-,N/A,,Mostly Cloudy,30,2012-10-08 10:53:00
7:05 AM,64.4,60.8,88,30.05,10.0,NNE,6.9,-,N/A,,Mostly Cloudy,20,2012-10-08 11:05:00
7:53 AM,64.0,60.1,87,30.05,10.0,NE,6.9,-,N/A,,Overcast,40,2012-10-08 11:53:00
8:11 AM,64.4,60.8,88,30.06,9.0,NE,6.9,-,N/A,,Overcast,50,2012-10-08 12:11:00
8:53 AM,64.9,61.0,87,30.07,8.0,ENE,9.2,-,N/A,,Overcast,60,2012-10-08 12:53:00
9:53 AM,66.9,62.1,84,30.07,8.0,NE,6.9,-,N/A,,Overcast,50,2012-10-08 13:53:00
10:53 AM,68.0,62.1,81,30.08,9.0,North,6.9,-,N/A,,Overcast,10,2012-10-08 14:53:00
11:53 AM,68.0,63.0,84,30.08,8.0,NE,6.9,-,N/A,,Overcast,40,2012-10-08 15:53:00
12:53 PM,68.0,62.1,81,30.07,8.0,NNW,6.9,-,N/A,,Overcast,330,2012-10-08 16:53:00
1:53 PM,69.1,62.1,78,30.03,8.0,North,9.2,-,0.00,,Overcast,10,2012-10-08 17:53:00
2:53 PM,66.9,61.0,81,30.02,8.0,North,8.1,-,N/A,,Overcast,360,2012-10-08 18:53:00
3:53 PM,64.0,61.0,90,30.04,7.0,North,9.2,-,0.00,,Overcast,350,2012-10-08 19:53:00
4:53 PM,61.0,57.9,90,30.04,10.0,North,12.7,-,0.00,Rain,Light Rain,350,2012-10-08 20:53:00
5:15 PM,60.8,57.2,88,30.05,4.0,North,5.8,-,0.00,Rain,Rain,350,2012-10-08 21:15:00
5:18 PM,60.8,57.2,88,30.05,1.8,North,5.8,-,0.01,Rain,Heavy Rain,10,2012-10-08 21:18:00
5:22 PM,60.8,57.2,88,30.05,0.8,North,6.9,-,0.09,Rain,Heavy Rain,360,2012-10-08 21:22:00
5:34 PM,60.8,57.2,88,30.05,1.2,North,5.8,-,0.34,Rain,Rain,10,2012-10-08 21:34:00
5:36 PM,60.8,57.2,88,30.05,2.5,North,5.8,-,0.34,Rain,Light Rain,10,2012-10-08 21:36:00
5:42 PM,60.8,57.2,88,30.05,9.0,NNE,5.8,-,0.34,Rain,Light Rain,30,2012-10-08 21:42:00
5:53 PM,60.1,57.9,93,30.05,10.0,North,8.1,-,0.34,,Overcast,10,2012-10-08 21:53:00
6:53 PM,60.1,57.9,93,30.06,10.0,North,9.2,-,N/A,,Overcast,360,2012-10-08 22:53:00
7:00 PM,59.0,57.2,94,30.05,10.0,North,13.8,-,N/A,,Overcast,350,2012-10-08 23:00:00
7:53 PM,59.0,55.9,90,30.06,10.0,North,11.5,-,N/A,,Overcast,350,2012-10-08 23:53:00
8:53 PM,59.0,55.9,90,30.08,10.0,North,8.1,-,N/A,,Overcast,360,2012-10-09 00:53:00
9:33 PM,57.2,55.4,94,30.09,10.0,North,11.5,-,N/A,,Overcast,350,2012-10-09 01:33:00
9:53 PM,57.9,55.9,93,30.10,7.0,North,10.4,-,N/A,,Overcast,350,2012-10-09 01:53:00
10:16 PM,57.2,55.4,94,30.10,10.0,North,13.8,-,N/A,,Overcast,10,2012-10-09 02:16:00
10:53 PM,57.0,55.0,93,30.10,7.0,North,11.5,-,N/A,,Overcast,360,2012-10-09 02:53:00
11:53 PM,57.0,55.0,93,30.11,10.0,North,8.1,-,N/A,,Overcast,350,2012-10-09 03:53:00